Bookmark and Share
Track history (hours):
 

Otagawa

Last reported at 2014-Apr-24 06:11 UTC. Time now 2014-Apr-24 09:38 UTC.
Position N 34°46' E 139°05'.

Length 70 m; draft 4.6 m.

Type: Ship. MMSI: 431001328.

NotesDate/timePositionNaut miles runAvg speedWind from/ knotsBaromVisibWave heightAir tempDewpointWater temp
2014-Apr-24 06:11N 34°46' E 139°05'610.1
2014-Apr-24 05:33N 34°51' E 139°10'2110.5
2014-Apr-24 03:33N 35°03' E 139°31'1111.2
2014-Apr-24 02:33N 35°08' E 139°43'10 9.7
2014-Apr-24 01:33N 35°18' E 139°44'10 9.9
2014-Apr-24 00:33N 35°28' E 139°42'0 0.5
2014-Apr-23 23:33N 35°28' E 139°42'6 5.6
2014-Apr-23 22:33N 35°29' E 139°48'5 4.7
2014-Apr-23 21:33N 35°34' E 139°50'0 0.0
2014-Apr-23 20:31N 35°34' E 139°50'0 0.0
2014-Apr-23 19:28N 35°34' E 139°50'0 0.0
2014-Apr-23 18:28N 35°34' E 139°50'4 4.7
2014-Apr-23 17:33N 35°36' E 139°46'1 0.5
2014-Apr-23 16:33N 35°37' E 139°46'0 0.0
2014-Apr-23 15:33N 35°37' E 139°46'0 0.0
2014-Apr-23 14:33N 35°37' E 139°46'7 6.6
2014-Apr-23 13:33N 35°32' E 139°52'1010.3
2014-Apr-23 12:33N 35°23' E 139°46'1010.0
2014-Apr-23 11:33N 35°13' E 139°47'1010.2
2014-Apr-23 10:33N 35°04' E 139°42'1110.8
2014-Apr-23 09:33N 34°57' E 139°31'49 5.9
2014-Apr-23 01:16N 35°02' E 138°32'180 5.0
2014-Apr-21 13:04N 34°18' E 134°59'510.2
2014-Apr-21 12:33N 34°23' E 135°02'1111.0
2014-Apr-21 11:33N 34°30' E 135°12'1110.5
2014-Apr-21 10:33N 34°39' E 135°18'2 2.0
2014-Apr-21 09:33N 34°41' E 135°17'0 0.0
2014-Apr-21 08:33N 34°41' E 135°17'0 0.2
2014-Apr-21 07:33N 34°41' E 135°17'0 0.3
2014-Apr-21 06:33N 34°41' E 135°16'0 0.0
2014-Apr-21 05:33N 34°41' E 135°16'0 0.0
2014-Apr-21 04:33N 34°41' E 135°16'0 0.0
2014-Apr-21 03:33N 34°41' E 135°16'0 0.0
2014-Apr-21 02:33N 34°41' E 135°16'0 0.1
2014-Apr-21 01:33N 34°41' E 135°16'2 2.2
2014-Apr-21 00:33N 34°40' E 135°14'3 2.8
2014-Apr-20 23:33N 34°41' E 135°17'2 2.2
2014-Apr-20 22:32N 34°40' E 135°19'0 0.0
2014-Apr-20 21:31N 34°40' E 135°19'0 0.0
2014-Apr-20 20:32N 34°40' E 135°19'0 0.0
2014-Apr-20 19:32N 34°40' E 135°19'0 0.0
2014-Apr-20 18:32N 34°40' E 135°19'0 0.0
2014-Apr-20 17:32N 34°40' E 135°19'0 0.0
2014-Apr-20 16:20N 34°40' E 135°19'0 0.0
2014-Apr-20 15:26N 34°40' E 135°19'0 0.0
2014-Apr-20 14:32N 34°40' E 135°19'0 0.0
2014-Apr-20 13:32N 34°40' E 135°19'0 0.0
2014-Apr-20 12:32N 34°40' E 135°19'0 0.0
2014-Apr-20 11:32N 34°40' E 135°19'7 7.6
2014-Apr-20 10:33N 34°33' E 135°15'1010.0
2014-Apr-20 09:33N 34°25' E 135°07'11 9.4
2014-Apr-20 08:22N 34°16' E 134°59'8 9.3
2014-Apr-20 07:33N 34°08' E 135°00'206 8.5
2014-Apr-19 07:25N 34°45' E 139°06'2010.3
2014-Apr-19 05:29N 34°58' E 139°24'1010.6
2014-Apr-19 04:33N 35°03' E 139°34'1111.1
2014-Apr-19 03:33N 35°10' E 139°44'1110.6
2014-Apr-19 02:33N 35°20' E 139°42'6 6.1
2014-Apr-19 01:33N 35°26' E 139°41'0 0.0
2014-Apr-19 00:33N 35°26' E 139°41'0 0.0
2014-Apr-18 23:33N 35°26' E 139°41'3 2.9
2014-Apr-18 22:33N 35°29' E 139°39'0 0.0
2014-Apr-18 21:33N 35°29' E 139°39'0 0.0
2014-Apr-18 20:32N 35°29' E 139°39'0 0.0
2014-Apr-18 19:32N 35°29' E 139°39'0 0.0
2014-Apr-18 18:32N 35°29' E 139°39'0 0.0
2014-Apr-18 17:32N 35°29' E 139°39'0 0.0
2014-Apr-18 16:32N 35°29' E 139°39'0 0.0
2014-Apr-18 15:32N 35°29' E 139°39'0 0.0
2014-Apr-18 14:32N 35°29' E 139°39'0 0.0
2014-Apr-18 13:32N 35°29' E 139°39'0 0.0
2014-Apr-18 12:32N 35°29' E 139°39'0 0.0
2014-Apr-18 11:32N 35°29' E 139°39'0 0.0
2014-Apr-18 10:29N 35°29' E 139°39'0 0.0
2014-Apr-18 09:32N 35°29' E 139°39'0 0.0
2014-Apr-18 08:32N 35°29' E 139°39'0 0.0
2014-Apr-18 07:29N 35°29' E 139°39'0 0.0
2014-Apr-18 06:29N 35°29' E 139°39'0 0.0
2014-Apr-18 05:32N 35°29' E 139°39'0 0.0
2014-Apr-18 04:32N 35°29' E 139°39'0 0.0
2014-Apr-18 03:32N 35°29' E 139°39'0 0.2
2014-Apr-18 02:33N 35°29' E 139°39'8 8.3
2014-Apr-18 01:33N 35°30' E 139°49'6 6.3
2014-Apr-18 00:33N 35°36' E 139°46'0 0.0
2014-Apr-17 23:33N 35°36' E 139°46'4 3.6
2014-Apr-17 22:33N 35°34' E 139°50'1 0.6
2014-Apr-17 21:33N 35°34' E 139°50'0 0.0
2014-Apr-17 20:31N 35°34' E 139°51'0 0.0
2014-Apr-17 19:31N 35°34' E 139°51'2 1.9
2014-Apr-17 18:33N 35°32' E 139°52'10 9.9
2014-Apr-17 17:34N 35°23' E 139°46'10 9.9
2014-Apr-17 16:34N 35°14' E 139°47'10 9.7
2014-Apr-17 15:34N 35°05' E 139°42'1010.4
2014-Apr-17 14:34N 34°58' E 139°33'26 1.4
2014-Apr-16 20:14N 34°45' E 139°05'811.4
2014-Apr-16 19:33N 34°52' E 139°10'1110.8
2014-Apr-16 18:31N 34°58' E 139°21'1010.9
2014-Apr-16 17:34N 35°03' E 139°32'1110.6
2014-Apr-16 16:34N 35°09' E 139°43'9 9.2
2014-Apr-16 15:34N 35°18' E 139°44'9 8.5
2014-Apr-16 14:34N 35°26' E 139°41'0 0.1
2014-Apr-16 13:33N 35°26' E 139°41'0 0.0
2014-Apr-16 12:34N 35°26' E 139°41'2 2.0
2014-Apr-16 11:34N 35°25' E 139°42'1010.3
2014-Apr-16 10:34N 35°15' E 139°47'1110.5
2014-Apr-16 09:34N 35°05' E 139°43'1211.4
2014-Apr-16 08:33N 34°58' E 139°32'50 6.7
2014-Apr-16 01:03N 35°02' E 138°30'0 0.0
2014-Apr-15 20:33N 35°02' E 138°30'179 5.0
2014-Apr-14 08:33N 34°19' E 134°59'10 9.8
2014-Apr-14 07:33N 34°27' E 135°06'1010.2
2014-Apr-14 06:33N 34°34' E 135°15'  

Dump ship's entire track history

sailing weather and tide predictions

Otagawa — JD3046 — position and weather